Theta_e
332 332 332 333 331 328 329 329 330 331 330 331 331 330 330 330 330 330 330 329 330 329 328 329 327 326 327 328 328 329 330 331 331 331 332 331 331 330 328 323 317 313 310 307 306 306 306 306 306 305 305 305 305 305 305 305 305 305 305 305 305 305 305 305 305 306 306 307 307 308 308 309 309 310 311 311 312 313 313 312 311 309 307 306 305
333 331 332 333 331 329 327 327 329 330 329 330 330 330 330 330 330 330 330 329 330 330 329 330 329 328 327 328 328 328 329 330 331 332 332 331 331 330 329 327 320 315 312 309 307 306 306 306 305 305 305 305 305 305 305 305 305 305 305 305 305 305 305 305 305 305 306 306 307 307 308 308 309 309 310 311 312 312 313 313 312 311 309 307 305
332 332 332 332 332 329 326 325 326 327 328 328 330 330 331 330 330 330 330 330 330 330 329 330 330 329 329 329 329 328 328 329 330 331 331 331 331 330 330 328 324 320 318 314 310 309 308 307 307 306 306 305 305 305 305 305 305 305 305 305 305 305 305 305 305 305 305 306 306 306 307 307 308 309 309 310 311 311 312 313 313 312 311 309 307
330 332 331 330 330 329 328 325 325 325 325 326 328 329 330 331 330 329 329 329 329 329 329 329 330 330 330 330 329 329 328 329 329 330 331 331 331 331 330 329 327 326 326 322 317 314 312 310 309 309 308 307 306 305 305 305 305 305 305 305 305 305 305 305 305 305 305 305 305 306 306 307 307 308 309 309 310 311 312 312 313 313 312 311 309
330 331 330 329 329 329 327 324 324 325 325 326 327 327 329 330 329 329 327 326 326 328 328 329 329 330 330 330 330 330 329 329 329 330 330 331 330 330 330 329 329 330 330 328 325 323 320 317 313 312 311 310 309 308 307 306 305 305 305 305 305 305 305 305 305 305 305 305 305 305 306 306 307 307 308 309 310 310 311 312 312 313 313 312 311
330 330 329 328 328 328 326 324 325 326 326 328 328 328 329 329 328 328 327 326 324 324 327 328 328 329 330 330 331 330 330 329 329 329 330 330 330 330 329 329 329 329 330 330 330 329 327 325 322 319 316 313 312 312 311 309 308 306 306 305 304 304 304 304 305 305 305 305 304 304 305 305 306 306 308 308 309 310 311 312 312 312 313 312 312
330 329 328 328 328 326 326 327 328 328 327 328 330 330 328 328 328 327 328 328 326 325 327 328 327 328 329 329 330 331 330 330 329 329 329 329 329 329 329 329 329 329 330 330 331 331 331 330 329 327 324 321 317 314 313 313 311 309 308 307 305 305 304 304 304 304 304 304 304 304 304 305 305 306 307 308 309 310 311 311 312 312 312 312 312
330 329 328 328 326 326 329 329 328 327 326 328 330 330 328 328 328 328 329 329 328 327 327 326 326 326 327 327 328 329 329 329 329 329 329 329 329 329 329 329 329 329 329 330 330 331 332 332 331 330 329 327 324 320 318 316 314 312 311 309 308 307 306 305 304 304 304 304 304 304 304 304 304 305 306 307 308 310 311 311 311 312 312 312 312
330 330 329 327 326 329 331 330 327 326 326 328 329 329 328 328 329 329 329 329 329 328 327 326 325 325 325 326 326 326 327 328 329 329 329 329 329 329 329 328 328 328 328 329 329 329 330 330 330 330 330 329 326 324 322 320 317 315 313 312 311 310 310 308 306 305 304 305 305 304 304 304 304 304 305 306 308 309 310 311 312 312 312 312 312
330 329 328 327 328 330 330 329 327 327 328 329 328 328 328 328 328 329 329 328 329 329 328 326 325 326 325 324 325 325 325 326 327 328 328 328 328 328 328 328 328 327 328 329 329 329 329 329 329 329 329 329 328 327 325 325 322 319 317 315 314 313 313 311 309 308 308 308 308 308 307 306 305 304 304 305 306 308 310 311 312 312 312 312 312
328 328 328 328 328 329 328 327 327 328 328 329 328 328 328 327 327 328 328 329 329 328 328 327 327 326 326 324 324 324 324 324 324 325 327 327 327 327 327 327 326 327 327 328 329 329 329 329 329 329 329 329 328 328 328 328 327 325 323 321 319 317 316 315 314 313 312 313 313 313 312 310 308 306 305 305 306 307 309 311 312 312 312 312 312
326 325 324 324 325 327 327 325 325 327 328 328 328 328 328 327 327 327 328 328 328 327 326 326 326 326 326 324 323 323 322 322 322 323 324 326 327 327 327 326 326 326 327 327 328 329 329 329 329 328 329 328 328 329 330 329 328 327 326 324 322 321 319 317 316 316 315 315 315 314 314 312 311 310 308 306 306 306 308 310 312 312 312 312 312
323 324 322 322 322 324 326 323 323 326 326 326 326 328 328 327 326 326 327 328 327 326 325 324 324 325 326 325 323 322 321 321 321 321 322 324 326 327 326 326 326 326 327 328 328 328 328 328 328 328 329 329 328 329 329 329 328 328 327 326 324 323 322 319 317 316 315 316 316 316 316 314 313 312 311 310 308 306 307 309 311 312 312 312 312
318 320 322 325 323 323 326 325 324 324 326 327 327 328 328 327 327 326 326 327 326 325 325 323 323 325 326 326 324 322 321 320 320 320 320 322 324 326 327 327 327 327 327 327 328 328 328 328 328 328 328 328 328 329 329 329 328 327 327 326 326 325 325 321 317 316 316 316 317 318 318 317 316 315 314 314 312 309 307 307 309 311 313 313 313
320 319 322 325 323 322 324 326 326 326 326 327 327 327 328 328 327 327 326 326 326 326 325 322 323 326 326 325 322 320 320 320 320 320 321 321 322 324 325 325 326 326 327 327 327 328 328 328 327 327 328 328 328 328 329 329 328 328 328 327 326 326 326 323 318 317 318 318 319 320 321 320 320 318 317 317 316 313 308 306 307 310 312 313 313
323 322 322 323 323 322 323 324 326 326 325 325 326 326 326 327 327 327 327 327 326 325 324 322 322 326 326 324 321 320 321 322 321 321 321 321 321 322 322 323 323 323 324 326 327 328 329 329 328 327 327 327 328 328 329 329 329 327 328 328 327 326 326 324 319 317 319 321 321 321 322 323 323 323 322 320 319 317 313 309 308 309 309 311 312
321 321 320 321 322 322 322 323 324 324 324 323 324 324 324 324 325 326 326 327 327 325 325 324 323 325 325 324 322 322 323 323 322 321 321 320 320 320 320 320 320 320 320 323 325 327 327 328 328 328 328 327 327 328 329 329 329 328 328 329 329 327 326 325 322 318 318 321 322 322 324 326 326 326 325 323 321 319 317 315 313 311 310 310 311
320 320 320 320 321 321 321 322 322 323 323 322 322 322 323 323 323 325 325 325 326 326 326 326 325 325 324 323 323 323 324 323 322 322 322 322 321 321 320 319 319 318 318 320 322 325 326 328 328 328 329 328 328 328 328 329 329 329 329 328 329 328 327 327 325 321 318 320 322 323 325 326 326 326 325 325 324 322 320 318 318 316 314 312 310
320 320 319 319 320 320 320 319 319 320 320 320 321 321 322 323 322 323 324 324 325 327 327 326 326 325 324 323 323 323 323 322 322 322 322 322 323 323 323 321 320 319 319 319 319 321 324 326 327 328 328 329 330 329 329 329 328 329 329 329 328 328 328 328 328 326 322 321 322 324 324 325 325 325 326 326 326 324 322 321 320 320 319 317 314
316 315 314 314 315 317 317 317 316 317 318 318 319 319 321 321 321 322 323 322 324 324 324 324 324 324 323 323 323 323 322 322 322 322 322 322 323 324 324 323 322 320 318 317 318 319 320 321 323 326 326 326 327 327 328 328 327 328 329 329 328 328 328 328 328 328 326 323 324 326 326 326 325 325 325 326 327 326 324 323 322 322 321 321 319
309 308 307 307 309 311 313 313 314 314 313 312 312 312 314 314 316 319 321 321 322 323 323 323 323 322 322 322 322 322 322 322 323 323 323 323 323 324 324 323 323 321 318 316 316 317 317 317 317 320 322 322 323 324 325 326 326 327 328 329 329 329 329 328 328 328 327 325 325 326 326 326 326 326 326 327 327 327 327 325 324 323 322 322 322
307 306 306 306 306 307 308 310 310 310 308 306 305 305 306 306 307 310 313 315 317 319 319 319 318 319 319 319 320 321 321 321 321 322 321 321 322 322 321 321 320 318 315 314 313 314 315 314 311 312 316 317 317 318 319 322 326 327 327 328 329 329 330 330 329 329 328 326 325 326 326 327 327 327 326 326 326 326 327 327 324 323 322 321 321
308 307 306 306 306 306 306 307 307 307 306 305 304 304 303 303 303 303 304 305 306 307 308 307 307 308 311 314 318 319 319 319 320 320 319 318 317 316 315 315 315 314 313 311 308 309 310 310 309 309 311 313 314 316 319 321 324 326 327 327 327 328 330 331 331 331 329 327 326 326 326 327 327 326 326 327 326 326 326 326 325 324 323 322 321
307 308 307 307 306 306 306 306 306 306 306 307 306 306 305 305 305 304 304 304 304 304 304 304 303 303 304 306 310 312 313 314 314 313 313 312 311 312 313 315 315 314 312 309 307 307 309 311 312 313 313 314 317 320 322 323 325 326 327 327 326 328 329 330 330 330 330 328 328 328 328 328 328 327 326 326 327 328 326 326 326 326 326 325 322
308 308 307 307 307 306 306 306 306 306 306 307 307 306 306 306 306 306 306 306 306 306 305 305 305 305 304 304 306 307 307 307 306 307 309 310 311 313 314 313 313 310 308 310 311 311 312 315 316 317 317 318 320 322 323 323 324 325 326 326 326 327 328 327 327 328 329 329 328 328 328 329 328 328 327 327 327 328 328 327 326 325 326 326 325
312 309 308 308 307 307 307 306 306 306 306 306 307 309 309 307 306 306 306 306 306 306 306 306 305 305 305 304 305 306 305 305 304 306 309 311 313 314 312 309 309 310 311 313 314 314 314 315 316 317 319 319 320 322 323 323 323 323 324 325 325 325 325 325 325 325 326 328 328 328 328 328 328 328 328 327 327 327 327 327 326 324 324 326 326
315 311 308 308 307 307 307 307 307 306 306 306 306 308 309 307 306 306 306 306 306 306 306 305 305 304 304 304 304 304 304 304 304 304 306 307 309 310 310 310 311 311 313 313 314 314 315 315 316 317 317 319 321 322 323 323 323 322 323 323 323 323 323 323 323 323 323 325 326 327 327 328 328 327 327 328 328 328 327 327 327 325 323 324 325
317 314 311 309 308 308 307 307 307 307 306 306 306 306 307 306 306 306 306 306 306 306 305 305 304 304 304 304 304 303 303 303 303 303 303 303 304 304 307 312 313 313 312 312 313 315 315 315 316 316 316 319 322 323 323 323 323 322 322 322 322 322 322 321 321 322 322 322 322 323 324 325 327 327 327 327 327 327 327 327 327 326 325 324 325
319 317 313 310 309 308 308 308 308 307 307 307 306 306 306 306 306 306 305 305 305 305 305 305 304 304 304 304 304 304 303 303 303 303 303 302 303 302 303 307 311 312 313 313 312 312 312 314 316 316 315 316 319 321 322 322 321 322 322 322 322 322 322 323 323 323 323 322 322 321 321 322 323 325 326 326 327 327 327 327 327 327 327 326 326
319 318 316 312 309 309 309 308 308 308 308 307 307 307 307 307 306 306 306 305 305 305 306 305 305 305 305 305 305 304 304 303 303 303 303 302 302 302 302 302 305 307 310 311 309 307 309 311 314 316 315 314 314 317 320 320 320 321 321 321 321 320 320 320 321 321 321 321 320 320 321 322 322 323 323 324 326 327 327 327 327 327 327 327 327
319 319 317 313 310 309 309 309 309 308 308 308 308 308 308 307 307 307 306 306 306 306 306 306 306 306 306 306 306 306 305 305 305 304 304 304 303 303 303 303 303 303 304 305 304 304 306 307 309 311 311 310 309 311 314 316 317 318 318 318 317 316 316 316 317 316 315 315 315 315 315 317 320 323 324 324 325 326 327 327 327 327 327 327 327
319 319 317 315 312 310 310 309 309 309 309 309 309 308 308 308 308 308 307 306 306 306 306 306 306 306 306 306 306 306 305 305 305 306 306 306 306 306 306 306 306 306 305 305 304 303 303 303 304 304 305 305 305 305 307 309 311 311 311 311 310 311 314 317 318 318 316 315 315 316 314 314 316 319 322 324 324 325 326 326 326 326 326 326 327
319 319 319 318 316 314 313 312 310 310 310 309 309 309 309 309 308 308 308 308 307 307 307 306 306 305 305 306 306 306 306 305 304 305 307 308 309 308 307 308 309 310 309 308 307 305 304 303 303 302 301 302 302 303 304 304 304 306 306 305 305 306 309 312 315 317 317 317 317 318 318 318 318 317 319 321 324 325 325 325 325 325 324 325 325
319 319 319 319 318 318 317 315 314 313 311 310 310 310 309 309 309 309 309 308 308 309 309 307 306 306 305 305 306 306 306 305 304 304 306 307 307 307 307 307 308 308 307 308 308 307 306 305 304 303 302 303 303 303 302 302 303 304 305 305 304 304 304 306 308 310 312 314 316 317 316 317 318 317 316 316 318 320 321 322 322 322 322 321 322
319 319 319 319 319 319 319 318 317 316 315 313 312 311 310 309 310 310 309 309 309 309 309 308 307 308 307 305 305 306 305 305 305 304 305 305 305 306 306 305 305 306 306 306 307 308 308 308 308 307 306 304 303 302 301 303 305 306 306 306 306 307 307 308 309 310 311 312 313 314 314 315 316 316 316 315 315 315 316 317 319 319 318 317 318
318 318 319 319 318 318 319 319 319 318 317 316 314 313 312 311 310 310 310 310 309 309 309 308 308 309 308 306 305 305 305 305 305 304 305 306 306 306 305 304 304 305 306 306 307 307 308 308 308 307 306 305 304 304 304 305 306 308 308 308 308 308 309 309 310 311 312 312 313 314 314 315 316 317 317 317 316 314 312 312 314 316 317 317 316
318 318 319 319 318 318 318 319 320 319 319 318 316 316 314 313 312 311 311 310 310 310 310 309 309 308 308 307 305 305 305 305 304 304 304 305 304 303 303 301 301 303 304 305 305 305 305 306 305 303 304 305 305 306 306 306 307 308 309 309 309 309 309 308 308 310 311 312 313 313 313 313 314 315 315 315 315 314 312 310 309 310 313 315 316
318 316 317 318 318 318 318 319 319 319 319 319 318 317 316 315 314 312 312 311 311 310 310 310 309 309 308 306 305 305 305 304 304 303 303 303 302 301 301 300 299 301 302 302 302 303 303 304 304 303 303 304 305 306 306 306 307 307 307 308 308 309 310 310 310 312 313 315 315 315 314 315 316 316 316 316 316 316 315 313 310 308 308 309 313
318 317 317 318 318 319 318 318 319 319 319 320 319 318 317 316 315 314 313 312 312 311 311 311 310 309 309 307 306 304 304 304 303 303 303 302 301 300 299 299 298 299 300 300 300 300 301 303 304 305 305 305 306 306 306 306 307 307 307 308 308 309 311 312 312 311 311 313 314 314 314 314 315 315 316 317 317 318 318 317 314 311 308 307 310
318 319 319 318 319 319 318 318 319 319 319 319 319 319 318 317 316 315 314 313 312 311 311 311 311 310 310 308 306 304 304 304 303 303 302 301 300 300 298 297 297 297 296 296 296 297 299 301 303 304 305 305 305 305 306 306 306 307 307 308 309 309 309 310 309 308 307 308 309 308 308 308 309 311 313 316 318 319 318 317 316 314 311 309 308
318 319 319 319 319 320 319 319 318 318 319 319 319 319 318 317 316 315 315 314 313 312 311 311 311 311 310 308 306 305 304 304 303 302 302 302 301 300 298 297 296 296 295 295 295 295 296 297 298 299 300 302 302 303 304 304 305 305 306 306 306 306 306 307 307 307 307 309 308 308 308 308 310 312 314 317 318 317 315 316 317 316 315 314 312
317 318 319 320 321 321 321 321 320 319 318 318 318 318 318 318 317 316 315 314 313 312 311 311 311 310 309 307 306 305 304 304 304 304 304 303 301 299 298 297 296 296 296 296 295 295 295 295 295 296 296 297 298 300 301 303 303 304 304 305 306 306 306 307 308 308 309 309 310 311 312 312 312 314 314 316 316 316 317 318 319 318 318 317 317
313 313 315 317 319 319 319 319 320 320 319 319 318 317 318 318 317 316 315 314 313 312 311 310 309 308 307 306 304 304 304 304 304 304 303 302 301 299 298 298 298 297 297 296 296 296 296 296 296 296 296 296 296 297 299 301 303 304 305 305 305 306 306 307 307 308 308 309 310 311 311 312 314 315 316 316 316 317 317 317 318 318 318 317 317
312 310 310 309 312 315 317 319 321 321 320 320 319 317 317 318 317 316 315 314 313 312 310 309 307 307 306 305 304 303 303 303 303 302 301 300 299 299 299 299 298 298 297 296 296 296 296 296 296 296 296 296 297 297 297 298 299 301 302 303 303 304 305 305 305 306 306 306 307 307 307 308 310 312 314 315 315 315 314 314 315 316 316 316 316
316 314 309 306 305 308 312 317 320 321 321 320 320 319 317 317 317 316 315 314 313 311 309 307 307 307 306 304 303 303 302 302 302 300 300 299 299 300 300 299 298 297 296 296 295 295 296 296 297 297 297 298 298 297 298 298 298 299 299 300 301 302 302 302 303 304 304 305 305 305 304 304 305 307 309 310 312 312 312 312 313 314 315 315 316
316 316 313 310 307 305 308 313 316 318 321 321 320 320 318 318 317 315 314 314 312 310 309 307 306 305 304 303 302 302 302 301 301 300 300 300 300 300 300 299 297 296 296 295 295 295 296 297 297 298 298 298 298 298 298 299 299 299 300 299 299 299 299 299 300 300 301 303 304 304 303 302 302 303 303 304 306 309 311 312 312 313 313 314 314
315 316 316 315 313 310 311 314 315 316 319 320 319 319 318 317 316 315 313 312 311 309 308 306 304 304 304 303 303 302 301 300 300 300 300 300 300 299 299 298 297 296 295 296 296 296 296 297 297 298 298 298 298 298 298 299 300 300 300 300 300 299 299 299 299 299 299 300 301 302 302 302 302 301 301 301 302 304 307 309 311 311 311 311 312
315 315 315 316 315 314 314 314 314 315 317 318 318 317 317 317 315 313 312 311 310 309 307 306 305 305 304 304 303 301 300 300 300 300 300 299 299 299 298 297 296 296 296 296 296 296 296 297 297 297 298 298 298 298 298 298 298 299 299 299 299 299 299 298 299 299 298 299 299 300 302 302 302 302 302 302 302 303 304 306 308 309 308 308 310
315 315 314 314 315 315 314 314 313 314 316 316 317 316 316 315 314 312 312 311 310 308 307 306 305 304 303 302 302 301 300 300 300 300 300 300 299 299 298 297 297 296 296 296 296 296 297 296 297 297 297 297 297 298 298 298 297 297 297 297 297 297 297 297 297 297 298 298 299 300 301 302 302 303 303 304 304 305 305 306 307 307 308 308 308
314 314 314 314 314 314 313 312 313 314 315 315 316 316 315 314 313 312 312 311 309 307 305 304 303 302 302 302 301 301 301 300 300 300 300 299 299 298 298 297 297 296 296 296 296 296 296 296 296 296 296 296 297 297 297 297 297 297 297 297 297 297 296 296 296 296 297 298 298 299 300 301 301 302 303 304 304 305 306 306 307 307 308 309 309
313 314 314 313 314 314 313 313 313 314 315 315 314 313 313 313 312 311 310 309 307 305 303 302 302 302 302 302 302 301 301 301 300 299 299 299 298 298 297 297 297 296 296 296 296 296 296 295 295 295 295 295 295 295 295 296 296 296 297 297 297 297 297 296 296 297 297 297 298 299 299 300 301 301 302 302 303 303 305 306 306 307 308 309 310
Wind_Speed
9 8 7 7 5 4 1 1 4 4 3 3 4 5 4 5 4 2 4 6 6 6 8 7 8 13 10 6 5 5 7 8 8 7 7 6 4 4 4 3 3 4 5 6 6 6 6 7 7 8 8 8 8 8 9 8 8 7 6 5 5 4 4 4 4 3 2 1 0 1 2 3 4 5 6 7 9 9 10 11 12 12 12 12 12
8 7 6 5 4 3 1 1 3 3 2 3 5 7 7 7 4 3 4 5 6 5 6 6 7 12 11 8 6 5 5 6 7 7 5 6 6 5 5 5 4 4 4 5 6 5 5 5 6 6 7 7 8 8 9 9 9 9 8 7 6 6 5 5 5 5 4 3 2 1 1 1 2 4 5 6 7 8 9 9 10 11 11 11 11
8 8 7 6 4 2 2 3 3 3 3 4 6 7 7 7 5 4 5 5 7 6 6 6 5 8 7 7 7 6 6 7 6 5 4 7 8 6 5 6 5 5 5 5 5 5 5 5 5 5 5 6 6 7 8 8 9 9 9 9 8 7 7 6 6 6 6 5 4 3 1 1 1 2 3 4 5 6 7 8 9 9 10 10 10
10 10 10 8 6 4 3 4 6 6 5 5 7 8 6 4 3 3 7 9 10 10 9 9 7 6 5 5 7 8 6 7 6 6 4 8 9 7 6 6 6 6 6 6 5 5 5 6 6 5 5 5 6 6 7 7 8 9 9 9 9 8 7 7 7 7 6 6 5 4 3 2 2 1 1 2 3 4 5 6 7 7 8 9 9
11 11 11 8 8 6 5 7 9 8 7 7 9 9 7 4 6 6 9 9 11 13 12 11 8 6 5 4 5 8 7 6 6 6 8 8 8 8 7 6 7 6 6 6 6 5 5 5 5 6 6 6 5 6 6 7 7 8 9 9 9 9 9 8 8 8 7 6 6 5 5 4 3 3 2 1 1 2 3 4 5 6 7 8 8
10 10 9 8 8 7 7 8 8 8 7 8 10 11 9 8 9 8 7 6 8 11 10 10 8 7 8 7 7 8 9 8 7 7 8 10 8 7 9 8 8 7 6 7 7 7 6 6 6 6 6 6 6 6 6 6 7 8 8 8 9 9 10 9 9 9 8 8 7 6 6 6 5 5 4 3 2 1 1 2 3 5 6 7 7
8 8 7 8 8 6 7 7 6 7 6 6 10 13 12 10 11 9 8 7 7 8 9 10 10 8 8 8 9 8 8 9 10 9 7 9 10 9 8 9 10 8 7 7 8 8 7 7 7 7 7 7 7 7 7 7 8 8 8 8 9 9 10 10 10 10 9 9 9 8 8 7 7 7 6 5 4 3 2 1 2 3 4 5 6
6 7 7 8 8 7 8 7 8 9 7 5 11 14 13 11 11 12 11 9 8 8 9 9 9 9 8 7 6 6 6 8 10 12 10 9 10 10 10 10 10 9 9 9 9 8 8 8 8 8 8 8 7 7 7 7 8 9 10 9 9 9 10 10 10 11 10 10 9 9 9 9 9 8 8 7 6 5 4 2 1 2 3 4 5
5 5 6 8 9 8 7 7 9 9 7 7 12 13 13 12 12 13 11 10 9 7 6 6 6 7 8 7 6 5 5 6 7 10 11 12 11 10 10 9 9 9 11 13 12 10 9 9 9 9 10 10 9 8 8 7 7 8 10 10 9 9 9 9 10 10 9 9 9 9 9 10 10 10 9 9 8 7 6 4 2 1 2 3 4
3 4 5 6 8 7 6 6 7 7 6 8 10 12 12 12 14 15 12 10 9 7 5 5 6 6 7 8 8 7 7 6 6 7 9 12 12 11 10 10 10 10 11 13 13 12 11 11 11 11 11 11 9 8 8 7 7 6 7 8 9 9 9 9 9 8 8 8 8 8 8 9 10 10 10 10 10 8 7 5 4 2 1 2 2
2 4 4 3 4 3 4 4 4 4 5 7 9 11 12 13 16 17 15 12 10 7 5 5 6 7 8 8 9 9 9 9 8 8 9 10 12 13 12 12 11 10 12 13 12 12 14 12 12 12 12 11 10 9 8 7 7 7 7 8 8 9 10 9 9 8 7 7 7 7 7 8 9 10 10 10 10 9 8 6 5 3 2 2 2
2 1 2 2 3 2 1 1 1 2 4 6 8 11 14 15 17 17 16 14 11 8 6 7 8 9 10 9 9 10 11 12 11 11 10 10 11 13 15 15 14 11 11 12 12 13 15 14 13 14 13 12 12 10 9 8 9 10 10 9 10 10 10 10 10 9 9 8 8 7 7 7 8 9 9 10 10 10 9 7 6 4 3 3 2
4 2 2 1 2 2 1 1 2 1 2 4 7 11 14 16 17 17 16 15 13 10 8 10 10 10 12 12 11 11 11 11 12 13 13 11 11 13 15 15 15 14 13 13 12 12 13 15 15 15 14 13 12 10 11 12 12 11 11 10 11 11 10 10 10 10 10 9 8 7 6 6 7 8 9 9 9 9 9 8 7 5 4 4 3
3 5 5 2 1 2 2 2 3 2 1 4 6 9 13 15 17 17 16 15 14 13 12 12 11 10 12 13 12 12 12 12 13 14 14 14 12 11 12 14 14 15 15 15 15 14 14 13 14 15 15 15 14 14 14 14 14 13 12 11 11 11 10 10 10 10 10 9 9 7 6 6 6 7 8 8 8 8 8 9 8 7 6 5 4
7 5 7 5 3 2 2 3 3 3 3 4 5 5 10 13 15 16 16 16 15 14 14 13 11 10 11 12 10 9 10 10 10 9 10 12 13 11 9 10 10 11 12 13 14 15 17 16 14 14 15 15 16 17 16 15 14 13 13 13 11 11 11 11 10 11 10 9 9 8 7 6 6 6 7 8 8 8 8 8 8 8 7 6 5
8 6 6 8 6 5 4 3 4 4 5 5 5 3 5 8 11 13 14 14 13 14 14 13 12 11 10 9 8 6 6 5 3 3 4 6 9 10 9 8 7 8 9 11 13 15 16 18 18 18 18 17 17 17 16 15 15 14 13 15 14 12 11 12 12 11 10 10 9 8 7 7 7 7 7 8 9 9 8 8 8 8 8 8 7
10 7 7 8 9 8 6 5 6 6 5 6 7 5 2 3 5 8 9 10 11 13 13 13 13 13 10 8 6 5 6 4 2 2 3 4 5 6 6 6 6 7 8 9 12 15 15 16 18 19 20 19 18 18 17 15 15 16 14 14 14 13 13 13 13 12 10 10 10 9 10 10 10 10 10 10 10 10 10 9 9 9 9 9 9
10 9 9 9 9 9 8 6 7 8 7 8 8 6 4 2 1 2 4 6 8 10 11 10 11 13 12 10 7 5 5 4 3 4 4 6 6 6 7 7 6 7 7 7 9 12 14 15 16 17 19 20 19 20 21 19 16 15 14 13 13 13 13 13 13 13 12 11 11 11 12 14 14 14 13 12 12 12 12 12 12 11 10 10 10
10 8 9 10 10 10 10 8 7 8 10 11 11 10 8 8 7 5 4 3 4 7 6 6 7 8 11 12 11 9 7 6 7 8 7 7 8 8 9 9 9 8 7 7 8 9 11 13 14 15 16 17 17 17 19 20 18 15 11 13 15 15 15 15 15 15 14 13 13 12 13 15 17 17 16 15 14 14 14 15 15 14 13 12 11
9 9 8 9 11 13 14 12 10 8 8 9 10 11 11 10 9 7 6 6 5 5 5 4 3 2 2 6 6 6 7 9 10 10 9 9 9 9 10 10 11 10 9 8 8 8 8 9 12 13 12 11 12 13 15 16 18 17 13 14 16 17 17 18 17 17 17 16 16 16 16 17 19 19 19 18 17 17 16 16 16 17 17 16 14
9 10 10 10 11 13 14 14 12 8 7 8 7 8 9 10 10 10 8 6 6 9 10 8 8 9 7 4 3 2 2 3 5 6 6 6 6 7 9 10 10 10 9 9 10 10 8 8 9 10 10 10 9 9 10 10 12 14 13 14 17 18 20 22 21 20 19 19 19 20 20 19 20 21 21 20 20 20 20 18 17 18 18 19 18
9 10 10 11 11 12 13 13 12 10 9 9 8 8 8 8 8 9 9 8 6 6 7 6 6 8 7 6 5 4 5 5 3 3 3 4 5 5 6 8 10 11 11 12 13 13 10 8 9 8 8 8 8 7 8 8 8 11 12 14 16 18 19 21 21 21 21 22 22 23 22 22 22 22 23 22 21 22 22 21 20 18 18 19 20
9 9 10 10 10 11 12 12 12 12 12 12 11 11 11 10 9 8 7 7 6 5 4 4 4 5 6 6 7 6 4 4 2 2 1 2 5 6 7 7 9 10 11 13 15 15 13 10 9 9 7 6 6 7 8 10 12 13 14 13 15 16 18 18 18 18 20 22 24 25 24 24 24 24 23 23 22 22 22 22 22 21 20 20 20
7 8 9 9 9 9 10 10 11 12 12 12 11 11 11 11 11 9 9 8 6 5 4 3 3 3 4 6 7 7 7 7 7 6 5 5 6 5 6 7 8 9 10 11 11 11 10 7 6 5 6 5 5 6 9 11 12 14 16 15 15 16 18 19 18 17 18 20 22 24 24 25 26 26 25 23 23 23 23 23 23 24 24 23 21
6 7 7 8 9 8 8 8 8 9 9 9 10 9 9 9 9 9 8 7 6 5 5 4 4 4 3 3 4 4 4 4 5 4 2 2 3 4 4 6 8 9 8 7 7 7 6 5 7 7 5 6 6 6 10 11 12 15 17 17 16 17 18 19 19 18 18 19 20 21 21 23 25 27 28 26 26 26 25 24 24 24 24 24 23
3 5 6 7 8 8 8 7 7 7 7 7 8 8 7 7 7 7 7 6 5 4 3 3 3 3 3 2 2 1 1 1 3 3 2 1 1 3 5 6 7 7 8 7 7 8 6 5 9 10 8 9 9 9 10 11 12 14 15 14 14 15 17 18 18 18 19 21 21 21 20 20 23 26 27 28 29 30 30 29 27 26 25 24 24
3 2 4 5 7 7 6 7 7 7 6 6 6 7 6 6 6 6 6 5 5 4 4 4 3 4 3 2 1 1 1 2 2 2 3 4 3 4 4 6 8 8 7 6 4 6 7 6 5 6 7 6 5 5 6 7 9 11 12 13 14 15 16 17 17 17 20 22 24 24 23 22 23 24 25 25 26 28 30 31 31 29 27 26 25
6 2 2 3 4 6 5 6 6 6 6 5 5 6 6 6 6 5 5 5 5 5 5 5 6 6 5 5 5 4 4 4 4 5 4 5 6 6 4 4 8 10 10 8 5 4 5 5 5 4 6 4 3 4 1 3 7 10 12 14 15 15 15 15 15 16 18 21 24 25 25 25 25 26 26 26 26 26 27 29 31 30 29 28 27
9 6 4 3 2 3 4 5 5 5 5 5 4 4 4 5 6 5 6 6 6 6 6 7 7 7 7 7 6 6 5 4 4 5 5 5 6 6 6 4 5 7 9 11 10 7 4 3 5 8 8 5 2 2 3 2 5 7 9 11 12 13 14 15 16 16 17 19 21 23 25 26 27 28 30 30 30 30 28 28 29 31 31 30 29
11 10 8 6 4 2 2 3 4 4 4 4 3 3 3 3 4 4 5 5 5 6 6 6 7 7 7 7 6 6 5 3 2 3 3 3 3 4 5 6 6 6 7 10 12 10 7 6 6 9 11 10 9 7 6 5 6 8 10 12 14 16 18 19 19 19 20 21 23 23 24 25 27 28 29 30 30 30 30 29 29 30 32 32 31
13 13 11 8 6 5 4 3 2 3 3 3 3 3 3 3 3 3 3 3 4 5 5 4 5 5 5 5 5 7 6 5 5 5 5 4 4 4 4 4 5 6 6 9 11 11 10 10 10 11 14 14 13 13 12 12 13 14 16 17 19 18 18 19 20 22 23 23 24 24 24 25 26 28 28 28 28 28 29 30 30 30 32 33 33
15 15 14 11 9 7 7 6 5 4 4 4 4 5 5 4 4 4 3 2 2 2 3 3 2 2 2 3 4 6 6 7 6 6 7 8 9 9 8 8 7 6 7 8 12 13 12 11 13 13 13 15 15 15 16 16 16 18 20 21 22 20 18 17 18 19 20 19 19 20 20 21 23 26 29 29 28 29 29 30 31 32 32 33 34
15 16 15 13 12 11 10 9 8 7 7 7 7 7 8 7 6 6 4 3 3 4 3 2 1 1 1 2 2 3 5 6 6 5 5 8 10 11 12 12 10 9 9 9 13 17 15 13 13 14 13 13 14 13 14 16 16 17 18 18 18 18 19 19 18 18 18 18 18 18 18 18 19 21 25 28 30 30 31 31 32 32 32 33 34
15 16 16 14 13 13 13 13 13 11 10 10 10 10 10 10 9 8 7 6 5 6 6 5 4 3 1 1 3 4 5 6 6 5 3 3 5 5 6 7 6 7 9 11 13 17 18 18 16 15 14 13 14 14 14 15 15 15 16 17 16 15 15 16 17 18 18 19 19 19 19 20 21 22 23 25 27 30 32 33 33 33 33 33 33
17 16 17 16 14 15 15 15 16 16 14 13 12 12 12 12 12 11 11 9 8 8 9 7 6 6 5 3 4 6 6 6 7 7 5 4 3 3 5 7 8 9 10 12 13 16 19 20 18 17 17 16 17 17 16 15 16 16 17 17 17 16 15 15 16 17 17 17 18 19 20 21 23 24 24 24 24 25 27 30 32 33 33 33 33
18 16 17 18 17 16 17 18 18 18 17 16 16 15 15 14 15 15 13 12 11 11 10 8 6 8 9 7 6 7 8 8 8 8 6 6 5 6 8 9 8 8 9 11 12 14 16 18 18 18 18 19 19 18 17 16 15 16 17 17 16 16 17 17 18 19 18 18 18 20 21 21 22 23 24 25 26 26 25 26 28 31 32 32 33
18 17 18 19 19 18 19 20 20 19 19 19 19 19 18 17 17 17 16 15 14 13 12 10 8 10 11 10 8 9 9 9 9 8 6 7 8 10 11 11 10 10 11 13 14 15 16 18 20 20 19 18 18 17 17 16 16 16 17 17 17 18 18 16 14 16 17 16 17 18 20 20 21 22 23 24 25 25 24 24 25 28 30 31 31
20 20 21 22 21 20 20 20 21 21 20 20 20 21 21 20 20 20 19 17 15 14 13 12 11 12 12 12 11 11 11 10 10 9 9 10 12 13 13 13 12 11 12 14 14 15 16 18 19 20 19 18 17 17 16 15 16 17 17 18 18 18 18 16 13 13 15 15 16 17 18 18 19 20 21 21 22 22 22 23 24 26 28 29 29
24 24 25 25 23 22 23 23 23 22 22 22 21 22 23 23 22 22 20 19 17 16 15 14 14 14 12 12 12 12 12 11 11 11 12 12 13 14 14 14 14 13 14 14 14 14 15 16 18 18 19 18 17 18 17 15 16 17 16 17 18 16 15 15 16 16 17 17 18 18 19 20 20 20 21 22 23 23 23 24 24 24 25 27 29
19 20 21 21 21 23 25 26 26 25 25 25 24 24 25 25 24 23 22 21 20 19 18 18 17 16 15 13 13 13 13 12 12 12 13 14 15 15 15 15 15 16 16 16 16 15 15 15 16 17 17 17 17 17 17 16 16 16 15 17 20 20 19 19 21 21 20 20 19 19 20 21 22 21 22 22 21 21 22 23 22 22 23 25 27
13 16 17 16 17 20 24 27 27 26 28 30 29 28 28 27 26 25 25 24 23 21 21 21 19 18 17 15 14 14 14 13 13 14 15 16 17 16 15 16 16 17 17 17 17 17 18 18 19 19 19 19 19 18 18 17 18 19 20 20 23 24 24 24 23 21 19 19 19 18 17 17 19 22 23 22 20 22 24 23 22 23 23 23 24
11 13 15 14 16 18 21 24 25 27 29 32 32 31 29 28 27 28 27 26 24 22 23 23 21 19 17 15 14 14 13 13 13 15 18 19 18 17 17 16 16 16 17 17 18 19 20 21 21 21 21 22 21 20 20 19 18 19 21 21 22 23 23 23 22 18 14 14 17 20 19 15 16 19 21 20 20 21 22 22 22 23 23 23 24
9 10 12 13 15 17 19 20 22 26 28 30 32 32 29 29 30 30 29 26 24 22 22 21 19 18 15 13 13 14 14 14 15 17 19 19 18 18 18 18 18 17 17 18 19 20 21 22 22 22 23 24 23 22 21 20 18 19 20 20 21 22 21 22 23 20 15 14 19 23 22 18 17 19 20 19 19 20 20 20 20 21 23 25 25
8 9 10 12 14 17 19 20 21 24 26 27 30 32 31 30 31 31 30 27 25 23 21 19 17 16 15 13 13 14 15 16 18 19 19 19 18 19 19 20 20 21 22 22 22 22 23 24 25 25 25 25 25 24 23 23 23 24 26 26 25 25 25 24 25 25 22 21 23 27 28 25 23 23 24 24 24 25 27 26 24 24 26 27 28
9 11 12 12 12 14 18 21 22 24 26 27 29 31 32 33 34 34 32 30 27 25 22 20 18 16 13 11 12 13 16 18 19 19 19 18 17 17 18 20 22 23 25 25 25 25 25 25 26 26 26 26 26 26 24 23 25 26 28 29 30 30 30 30 29 30 27 24 24 28 33 32 28 28 29 27 25 24 27 28 27 27 27 27 29
10 13 15 13 11 11 13 19 22 23 24 26 28 29 32 34 35 35 33 30 27 24 21 19 17 13 11 12 14 14 16 17 17 16 15 14 14 15 17 20 22 24 26 26 27 27 26 25 26 27 27 26 26 26 23 21 21 23 25 28 30 32 33 35 36 36 34 30 26 29 36 36 32 31 32 30 27 25 25 26 26 27 28 28 29
10 12 14 15 14 11 11 16 20 20 22 23 25 27 30 32 34 34 32 28 25 23 20 18 16 15 15 16 16 16 16 16 16 17 16 16 18 20 21 23 24 26 27 27 27 27 26 25 26 27 28 27 27 27 24 22 23 24 25 28 30 32 35 38 40 39 38 34 29 29 34 35 30 30 32 30 29 29 28 27 26 26 28 30 30
10 11 12 14 16 15 14 16 18 20 22 22 22 25 28 30 31 31 29 27 26 25 23 20 19 18 16 15 15 15 16 16 16 17 18 20 22 24 25 27 29 29 29 28 28 27 26 25 25 26 28 28 29 29 28 28 30 31 32 34 35 36 39 42 43 43 41 37 30 26 30 33 30 29 30 27 26 28 28 28 28 28 29 31 32
11 11 12 13 14 15 18 20 18 18 21 22 23 24 26 27 28 28 29 29 28 26 22 19 17 15 14 14 14 15 15 15 17 18 19 22 24 26 28 30 30 30 30 30 30 28 26 26 27 28 28 29 30 31 31 30 31 31 33 36 36 35 36 38 40 40 39 36 29 23 26 31 28 25 26 24 23 23 24 25 27 28 30 32 34
12 13 13 12 13 16 21 22 19 18 18 20 21 22 23 26 28 29 31 30 27 22 17 14 12 12 11 12 13 15 16 18 19 21 22 25 26 27 29 30 31 32 33 33 33 31 29 28 29 30 31 31 31 31 31 31 30 28 30 34 33 32 34 35 35 35 34 32 27 22 25 30 27 24 25 25 24 22 21 22 25 26 28 31 34
13 14 13 12 15 19 22 21 19 17 17 18 19 20 22 26 28 29 28 26 22 16 11 10 10 10 9 10 13 16 18 20 21 23 24 25 27 28 30 32 34 35 36 36 37 37 37 37 37 37 38 38 37 37 36 36 35 33 33 34 32 30 32 34 32 31 30 28 22 19 23 26 24 22 21 21 23 21 16 18 24 26 27 30 32
Wind_Direction
186 192 190 183 157 134 157 185 180 185 198 208 171 139 160 222 245 216 208 202 197 191 177 185 198 188 178 176 212 204 177 186 184 195 243 258 265 263 272 286 297 301 298 293 270 242 225 211 212 213 211 212 211 212 209 204 202 201 196 191 193 198 202 204 203 198 199 212 128 67 58 58 53 52 54 55 58 58 58 58 55 52 49 49 48
191 204 200 195 158 139 196 198 188 208 235 206 172 167 175 200 219 217 221 206 199 202 187 193 200 192 184 175 197 210 197 208 193 185 224 256 268 263 265 276 283 290 290 290 288 277 257 227 215 212 212 211 208 215 217 213 211 210 208 204 203 206 208 211 212 207 205 215 226 242 15 39 46 45 45 46 50 54 56 57 56 55 51 49 48
200 206 204 204 178 162 231 239 239 259 273 235 206 194 187 199 196 185 220 210 189 201 206 199 208 216 200 176 190 211 222 229 207 180 204 243 263 285 281 272 269 280 289 285 286 292 292 277 251 229 219 214 210 216 223 220 217 219 219 215 213 214 215 218 218 215 211 212 221 225 236 278 359 32 37 38 40 46 51 53 54 54 54 51 49
212 209 207 214 215 210 213 235 248 257 269 259 236 217 208 205 159 187 235 221 189 184 196 191 193 225 220 186 193 197 222 254 233 184 195 244 259 278 280 281 277 277 288 285 281 285 293 297 287 269 247 232 223 221 228 230 226 227 228 227 226 224 225 227 228 229 224 219 222 228 231 244 266 289 356 25 33 39 44 49 52 51 52 52 50
204 203 207 218 219 213 218 231 241 247 255 254 239 224 215 192 159 201 239 232 203 190 194 190 180 199 204 196 205 198 201 237 252 210 195 223 257 275 273 278 283 285 289 285 284 282 282 290 291 287 277 266 255 242 239 241 239 237 237 236 234 233 235 236 237 237 239 238 234 238 244 248 256 267 277 292 348 33 41 42 46 48 49 49 49
198 201 205 213 215 216 227 233 237 239 249 252 235 212 197 194 182 198 229 228 206 190 187 188 183 192 193 189 196 207 200 198 232 240 215 205 213 256 277 278 275 279 287 286 285 282 281 286 289 291 290 286 281 272 262 256 253 249 245 244 243 242 242 243 244 242 246 249 247 247 249 252 256 262 268 273 285 324 26 38 39 42 44 45 47
193 196 190 199 207 217 228 229 232 239 257 252 221 200 190 195 183 181 209 211 191 179 176 187 197 201 203 206 203 207 206 195 204 217 231 229 211 215 248 266 269 270 278 281 278 278 281 287 291 294 294 294 291 287 281 273 268 262 257 250 248 251 252 251 249 248 250 249 249 249 251 256 259 264 268 272 275 277 293 2 28 34 38 40 42
195 190 178 193 206 217 225 230 241 249 262 230 201 196 192 193 182 179 200 203 186 184 185 194 209 210 212 221 218 212 211 207 204 201 208 228 231 222 221 239 260 270 275 274 271 274 278 284 289 291 293 295 292 289 286 280 276 270 267 261 252 253 257 258 254 251 252 252 253 252 252 255 258 263 266 269 271 271 275 290 351 20 30 35 37
208 198 191 206 214 217 226 246 250 242 242 213 199 202 197 192 188 187 198 196 183 190 195 202 216 221 226 231 231 230 229 222 213 210 208 212 224 230 233 244 253 264 272 270 269 269 270 278 286 289 290 290 288 286 284 281 278 271 269 269 265 263 263 262 260 257 259 262 263 261 259 257 257 259 262 264 267 268 270 271 287 341 14 27 31
197 209 216 219 220 223 233 249 246 229 219 211 207 212 209 197 191 190 193 189 184 194 206 223 234 230 232 238 240 239 239 233 218 219 220 218 216 214 232 248 249 262 264 259 267 271 266 269 277 283 285 284 282 279 282 284 284 279 272 271 271 273 273 270 267 267 268 270 271 270 267 261 258 257 258 261 262 264 268 269 272 285 329 5 21
157 208 219 209 222 234 232 237 245 232 213 215 217 220 214 202 195 192 192 190 187 196 206 224 240 244 244 242 242 240 240 239 230 224 225 228 222 211 216 221 224 248 254 251 260 264 263 265 271 279 282 281 278 273 278 287 291 294 290 283 274 271 271 269 267 268 270 273 275 275 272 263 259 256 255 258 259 261 262 265 269 272 288 315 348
100 230 221 190 207 213 213 210 239 235 213 217 221 220 212 203 201 196 193 195 193 201 230 249 252 260 264 254 243 243 246 246 239 234 236 238 234 221 213 211 215 221 229 243 252 254 261 267 271 276 280 281 277 268 271 285 291 295 295 289 283 278 272 267 266 267 269 272 272 272 272 268 260 255 254 255 257 258 259 261 264 267 273 280 295
136 132 59 337 227 185 188 143 161 194 203 206 210 216 213 204 206 206 201 202 207 219 242 254 254 258 263 258 249 248 254 259 253 247 244 241 240 228 219 222 228 221 213 220 230 238 254 267 272 275 277 282 283 275 275 281 285 289 295 294 290 286 280 270 265 265 267 267 267 266 267 269 265 257 253 255 258 259 258 258 257 258 261 265 271
95 122 108 73 337 166 159 126 143 150 146 170 181 208 214 208 210 214 214 215 223 236 243 244 242 246 254 253 252 255 260 266 265 261 252 239 233 231 231 237 239 235 229 225 225 228 231 250 271 276 278 283 286 284 280 279 281 284 289 294 295 290 285 277 266 260 260 259 257 257 261 268 268 262 257 256 259 263 260 255 251 250 249 253 262
53 87 119 108 56 51 113 126 143 137 123 139 145 188 214 219 220 220 224 227 229 236 241 241 236 233 241 245 253 264 270 272 269 268 260 243 235 236 245 247 241 246 252 246 243 239 227 227 241 253 259 263 268 275 277 275 278 281 284 287 290 290 290 285 269 255 254 256 257 256 257 264 269 268 266 260 258 261 260 254 248 246 246 247 251
100 97 115 120 108 91 83 95 116 102 82 91 100 128 197 214 224 225 230 234 232 233 234 234 230 224 228 238 245 256 269 276 275 269 257 243 238 240 249 249 248 267 276 265 257 254 243 233 230 234 239 239 240 252 266 271 272 275 280 282 280 282 289 288 275 259 252 253 258 261 258 260 268 274 276 271 263 258 256 253 250 250 250 249 248
125 107 102 120 130 124 104 95 105 97 71 75 82 68 93 184 217 218 220 226 225 224 226 226 222 219 221 229 227 232 249 255 267 275 252 244 239 237 250 258 266 280 282 274 262 256 256 249 238 235 241 241 233 233 243 255 263 268 273 275 272 274 282 284 277 268 259 254 258 265 266 264 267 271 274 271 263 255 252 250 249 250 252 251 250
117 113 115 117 123 128 125 125 128 133 139 135 120 93 74 99 130 184 197 216 216 213 218 218 214 216 220 224 224 229 244 245 261 285 277 273 273 266 266 267 274 279 273 275 270 260 258 256 249 243 248 250 242 238 241 241 243 254 264 267 264 267 273 277 278 274 269 262 258 261 263 264 266 265 264 264 261 257 253 250 247 247 249 251 251
109 117 128 129 130 127 118 107 108 133 151 150 146 145 138 121 103 86 88 112 189 206 216 211 211 224 226 226 231 241 254 258 270 286 289 288 286 284 283 276 276 281 273 266 273 272 264 260 258 260 263 258 252 253 253 246 239 238 248 261 264 266 269 273 276 276 273 265 259 258 259 263 267 265 261 259 260 260 257 254 251 249 249 249 251
104 106 114 122 125 122 115 106 99 111 140 150 157 168 165 150 139 133 117 100 116 130 104 102 120 108 201 221 227 242 259 262 270 280 280 281 285 289 293 285 275 277 279 276 273 276 279 275 266 262 266 265 261 263 259 249 244 242 238 245 255 260 262 265 268 270 271 265 257 257 258 261 266 267 264 260 260 262 260 259 258 254 251 249 249
104 101 101 106 113 121 123 121 115 113 129 140 149 163 170 173 170 167 163 148 128 119 107 101 98 90 85 72 58 27 342 299 288 292 287 293 303 309 314 307 291 279 279 288 287 281 280 286 282 265 256 261 268 268 261 251 249 251 245 242 247 251 253 256 258 262 265 263 257 255 257 260 263 267 267 264 263 263 262 262 262 259 256 253 250
96 97 98 102 106 112 118 121 122 116 110 111 114 121 128 141 154 162 169 173 167 150 142 144 133 117 110 98 93 81 57 56 38 3 352 344 331 318 321 319 310 299 289 289 292 288 279 283 297 291 271 270 281 284 281 283 276 267 263 258 253 251 251 252 252 254 256 256 253 252 253 257 259 264 268 269 267 266 264 262 261 260 259 257 254
95 96 96 101 105 108 113 116 118 114 107 104 104 108 108 107 113 121 133 148 158 161 169 181 172 163 167 159 148 146 137 132 158 188 211 297 290 290 303 312 311 307 300 293 288 287 289 293 298 303 308 311 315 312 296 288 284 278 273 271 265 260 259 258 255 253 254 253 253 251 251 252 254 256 262 268 269 267 265 262 258 257 259 260 259
111 106 100 102 105 108 113 115 116 115 112 109 108 109 110 110 109 108 109 114 118 121 123 118 115 142 178 181 179 190 198 204 222 234 243 263 278 297 311 311 301 294 298 300 295 294 302 314 322 328 338 333 315 294 283 277 275 278 278 275 271 266 265 264 261 258 257 256 256 256 254 252 252 251 254 261 266 265 265 264 260 258 259 259 260
125 120 114 113 110 108 110 112 116 115 114 116 117 114 113 116 116 113 110 108 104 103 105 101 99 108 137 168 185 204 207 208 219 222 246 299 321 321 296 289 294 302 320 336 337 329 325 338 341 342 342 339 330 286 274 274 265 266 272 274 271 267 265 265 263 260 258 257 256 258 258 254 251 249 249 253 258 261 263 264 264 264 262 259 258
135 124 124 124 119 115 113 112 112 111 113 118 118 116 117 121 119 113 109 106 101 94 92 92 95 101 117 152 197 226 219 208 208 199 213 250 302 304 297 303 313 328 346 349 340 330 319 312 332 340 329 315 315 291 278 282 276 272 276 280 278 274 271 267 262 259 257 256 255 255 257 256 252 250 250 251 255 258 260 261 263 266 265 262 259
212 140 124 128 122 123 124 122 121 118 118 121 125 127 127 124 117 112 106 98 93 88 80 75 72 75 77 76 71 31 347 326 305 284 272 270 265 279 314 343 338 335 337 328 329 337 324 293 298 1 11 338 311 289 278 281 282 286 291 293 291 287 281 275 269 264 260 258 257 256 256 256 254 252 251 252 254 257 259 259 260 262 264 264 262
236 225 161 151 125 129 135 131 130 129 127 128 132 136 136 131 125 119 114 111 107 100 89 84 80 76 70 59 57 51 30 9 350 344 335 321 309 301 314 351 342 335 332 329 329 327 320 292 272 330 14 26 86 107 144 257 273 284 294 295 293 293 289 284 281 275 266 261 259 258 257 256 254 252 250 252 254 258 261 259 258 258 261 262 263
235 240 230 224 174 147 145 141 143 139 138 141 137 141 141 135 131 128 125 122 115 106 102 100 95 91 87 79 72 65 43 25 11 359 350 341 336 329 323 323 328 329 328 326 321 308 300 307 307 312 309 297 293 152 163 221 272 275 280 279 273 271 272 273 277 278 274 268 263 261 259 257 255 253 252 254 257 259 259 258 257 256 258 260 262
231 241 243 249 261 251 186 158 158 157 156 154 154 162 168 153 141 136 128 124 122 119 116 109 103 98 91 85 85 80 59 44 61 41 12 356 351 344 327 312 304 303 307 308 311 314 309 295 290 290 283 283 289 273 234 218 236 248 254 257 258 261 264 265 267 269 271 271 270 269 266 261 259 257 257 257 258 257 256 256 256 256 258 259 260
225 238 245 254 267 273 270 256 208 197 194 184 186 201 211 207 193 175 151 145 144 134 129 121 112 103 92 83 77 67 49 42 51 39 33 43 33 14 357 337 312 295 297 302 305 314 317 302 289 284 282 286 287 280 268 255 253 259 262 263 268 272 274 275 273 271 270 271 273 273 272 268 262 259 259 259 257 254 254 256 257 258 260 261 261
220 235 245 252 261 267 268 273 269 255 250 239 227 229 234 238 240 235 219 204 209 182 163 156 142 114 90 81 68 58 40 31 33 19 12 14 10 8 6 2 354 332 322 314 305 310 316 310 304 302 298 294 289 285 282 274 271 274 273 271 272 272 270 273 276 279 280 280 279 279 280 277 268 260 257 258 257 256 255 256 257 259 260 262 263
221 233 240 245 255 260 259 263 267 264 262 261 257 251 248 247 249 250 251 253 252 249 245 242 246 270 16 8 5 28 29 26 26 21 11 351 341 351 354 352 355 348 332 318 306 306 312 314 310 312 314 309 303 299 294 289 287 286 285 285 284 278 273 271 270 274 279 285 288 287 287 286 280 268 260 257 257 256 256 256 257 258 260 262 264
218 232 238 240 244 249 252 256 262 265 265 263 261 258 257 256 254 255 264 271 260 251 260 277 278 266 264 274 286 320 354 5 5 12 17 302 290 320 328 315 311 305 300 299 296 297 306 314 317 320 325 322 314 311 308 304 303 301 299 299 300 297 290 283 279 275 271 268 271 274 277 278 278 276 272 267 262 259 257 257 257 258 260 262 264
214 225 237 241 241 244 246 246 251 259 264 267 266 261 258 257 257 258 263 268 264 255 260 274 275 270 278 277 267 291 320 336 341 351 353 327 307 292 273 275 284 292 301 303 299 300 307 314 317 319 321 316 312 314 316 313 310 308 304 302 304 306 306 304 303 299 289 279 275 275 275 275 276 278 280 279 276 271 264 260 258 258 259 260 262
217 218 230 240 243 246 244 239 241 248 254 262 269 269 263 257 258 261 261 260 257 254 259 263 252 253 272 287 284 288 305 320 326 336 340 331 320 298 286 287 288 288 294 292 289 291 295 299 302 304 305 307 310 314 315 311 306 302 300 300 299 297 296 292 286 283 284 283 277 273 271 272 273 275 277 279 281 282 277 270 263 258 257 258 260
225 224 230 235 239 244 244 241 239 241 245 252 259 265 267 261 258 259 259 258 253 250 254 256 240 237 256 273 276 275 285 300 310 316 311 297 292 293 292 289 283 273 268 267 268 273 278 284 291 296 300 303 305 307 307 308 308 304 300 300 298 296 296 296 289 284 290 292 286 280 279 278 278 278 279 282 284 286 285 280 273 265 260 258 258
241 241 243 241 236 236 239 242 242 241 243 246 249 255 261 261 258 255 254 253 250 247 248 247 241 241 252 262 263 264 271 284 293 295 293 292 295 299 298 294 290 281 272 270 271 276 281 286 291 297 302 304 304 305 307 307 303 299 297 297 300 302 303 306 304 296 294 294 290 288 288 287 287 288 289 291 293 294 294 292 286 277 268 262 259
252 249 251 249 242 237 238 239 239 239 239 242 245 248 252 255 256 252 248 244 244 245 244 241 246 254 261 262 260 262 268 278 286 289 292 296 299 301 300 297 292 285 280 278 277 279 284 288 292 296 301 303 302 302 305 304 298 297 298 297 294 290 285 282 281 279 277 274 270 271 274 278 284 288 290 291 290 291 293 295 293 284 275 267 262
252 250 254 254 246 243 242 239 237 237 239 240 241 244 247 248 249 247 244 241 241 243 243 243 248 258 265 268 267 267 273 283 290 291 293 297 300 300 297 294 290 287 285 284 282 281 281 283 286 289 292 294 295 296 299 300 298 296 293 287 282 278 274 274 277 283 287 285 282 278 275 275 280 286 289 287 282 284 289 290 289 286 280 273 265
253 249 253 253 247 245 244 242 243 242 242 242 243 245 244 242 242 242 241 241 244 248 249 248 249 255 261 267 269 271 280 290 293 293 296 299 301 299 296 293 291 290 289 288 288 288 287 285 283 283 282 282 284 287 288 288 287 287 285 285 286 287 288 289 289 291 295 296 298 298 292 285 284 285 289 289 285 286 289 285 282 284 285 283 276
252 251 253 251 249 249 248 249 250 246 243 245 248 247 242 237 237 238 237 239 246 251 250 247 250 256 261 266 271 274 281 287 291 295 297 300 301 300 297 296 293 291 290 291 293 295 295 294 293 290 286 282 281 281 282 283 285 287 288 289 290 290 291 294 294 296 298 294 289 284 278 274 274 275 280 286 288 291 291 287 283 283 283 283 281
257 260 263 262 259 257 256 256 254 250 247 246 246 245 239 233 234 235 234 239 244 245 243 244 249 255 263 272 277 278 282 288 294 296 296 298 300 300 300 299 297 296 296 297 299 301 301 300 298 296 292 289 287 282 279 278 276 275 276 275 276 278 282 287 289 290 287 280 275 271 264 255 254 258 261 261 265 275 284 287 286 284 282 279 277
271 266 267 271 270 265 262 260 257 255 254 248 242 240 236 233 233 232 233 239 241 236 235 238 243 253 269 280 277 275 283 292 298 299 298 300 302 302 302 303 304 304 304 305 307 308 307 305 301 299 296 295 294 290 285 280 273 268 269 269 270 272 274 277 280 280 278 274 273 273 268 261 257 257 257 254 254 263 273 279 281 281 281 280 279
272 272 275 276 274 271 265 260 257 254 253 248 242 239 236 233 233 232 234 238 238 233 232 235 242 254 267 270 265 269 281 291 296 297 297 301 303 301 299 299 301 303 304 306 308 309 308 304 299 297 297 297 296 295 293 289 281 276 273 271 270 270 270 270 270 270 271 272 273 275 274 272 269 265 261 257 256 262 270 274 276 276 277 279 281
258 266 273 277 277 275 264 258 258 256 253 250 248 244 238 233 231 231 233 235 235 235 236 240 247 250 241 238 247 260 272 281 286 287 289 292 291 287 287 290 295 298 300 301 304 306 305 301 295 294 295 294 292 293 294 291 286 283 280 277 276 275 274 273 271 270 269 269 274 281 283 283 282 277 271 268 264 265 271 275 275 276 277 279 281
251 258 272 280 284 283 264 252 253 256 254 251 249 243 235 231 230 231 231 232 234 237 238 235 238 241 239 245 259 268 271 272 270 271 275 277 275 276 280 286 291 293 294 296 299 304 305 300 293 291 292 293 292 292 291 286 282 280 279 279 280 281 280 280 278 277 275 273 274 280 284 286 289 286 283 281 274 268 267 271 273 275 278 279 279
254 251 258 268 278 282 270 255 251 252 252 250 246 239 233 232 234 232 230 232 236 239 239 238 243 252 260 270 276 277 278 277 273 273 277 278 278 280 284 289 293 294 295 297 299 302 303 298 290 286 286 285 284 283 281 278 276 277 276 276 276 278 280 281 281 280 280 279 279 277 278 284 289 291 289 288 282 275 270 268 270 273 276 278 278
263 256 251 253 263 268 265 262 258 252 250 250 248 243 240 242 243 239 236 238 240 241 243 247 253 260 268 275 278 277 278 275 272 273 276 276 278 282 286 290 294 295 296 298 299 299 299 295 289 284 279 276 275 275 275 274 274 275 276 277 277 279 281 282 282 282 281 280 279 276 274 276 281 286 290 289 285 282 280 275 273 274 274 274 275
262 260 258 257 254 253 257 261 260 253 250 251 250 248 248 248 246 241 239 240 240 240 245 254 261 268 272 272 275 278 275 271 271 274 276 277 279 283 286 289 290 291 294 297 297 294 291 288 285 284 282 280 279 278 277 276 275 273 273 274 277 279 280 281 283 285 283 279 274 270 268 270 271 273 281 285 281 276 279 280 276 275 274 271 270
258 258 261 259 253 252 255 257 254 250 246 246 250 253 254 250 243 236 236 237 236 236 243 258 269 279 282 273 269 272 272 271 275 277 276 277 279 281 283 285 286 289 292 293 292 291 290 288 286 285 284 282 281 280 278 276 274 272 270 271 272 273 275 278 281 283 283 281 276 266 264 268 271 268 271 283 287 280 275 279 280 277 274 272 268